Time,TemperatureF,DewpointF,PressureIn,WindDirection,WindDirectionDegrees,WindSpeedMPH,WindSpeedGustMPH,Humidity,HourlyPrecipIn,Conditions,Clouds,dailyrainin,SoftwareType,DateUTC
2013-01-05 00:14:00,29.4,21.0,30.39,East,90,0.0,3.0,72,0.00,,,0.00,weatherlink.com 1.10,2013-01-05 05:14:00,
2013-01-05 00:29:00,28.7,21.0,30.38,ENE,60,0.0,2.0,73,0.00,,,0.00,weatherlink.com 1.10,2013-01-05 05:29:00,
2013-01-05 00:44:00,28.5,22.0,30.37,East,81,2.0,3.0,75,0.00,,,0.00,weatherlink.com 1.10,2013-01-05 05:44:00,
2013-01-05 00:59:00,28.5,21.0,30.37,ENE,77,1.0,1.0,74,0.00,,,0.00,weatherlink.com 1.10,2013-01-05 05:59:00,
2013-01-05 01:14:00,28.1,21.0,30.37,East,95,1.0,1.0,76,0.00,,,0.00,weatherlink.com 1.10,2013-01-05 06:14:00,
2013-01-05 01:29:00,28.2,21.0,30.37,South,177,0.0,4.0,74,0.00,,,0.00,weatherlink.com 1.10,2013-01-05 06:29:00,
2013-01-05 01:44:00,28.3,21.0,30.38,SW,229,1.0,1.0,73,0.00,,,0.00,weatherlink.com 1.10,2013-01-05 06:44:00,
2013-01-05 01:59:00,27.8,21.0,30.38,WSW,248,0.0,1.0,74,0.00,,,0.00,weatherlink.com 1.10,2013-01-05 06:59:00,
2013-01-05 02:14:00,26.4,20.0,30.37,South,191,0.0,1.0,78,0.00,,,0.00,weatherlink.com 1.10,2013-01-05 07:14:00,
2013-01-05 02:35:00,25.0,21.0,30.39,SSW,193,0.0,0.0,83,0.00,,,0.00,weatherlink.com 1.10,2013-01-05 07:35:00,
2013-01-05 02:44:00,24.7,21.0,30.37,South,184,0.0,0.0,84,0.00,,,0.00,weatherlink.com 1.10,2013-01-05 07:44:00,
2013-01-05 02:59:00,24.6,21.0,30.38,South,184,0.0,0.0,85,0.00,,,0.00,weatherlink.com 1.10,2013-01-05 07:59:00,
2013-01-05 03:14:00,24.7,21.0,30.37,SSW,194,0.0,0.0,85,0.00,,,0.00,weatherlink.com 1.10,2013-01-05 08:14:00,
2013-01-05 03:29:00,24.6,20.0,30.37,SSW,212,0.0,1.0,84,0.00,,,0.00,weatherlink.com 1.10,2013-01-05 08:29:00,
2013-01-05 03:44:00,24.1,20.0,30.37,SSW,212,0.0,0.0,85,0.00,,,0.00,weatherlink.com 1.10,2013-01-05 08:44:00,
2013-01-05 03:59:00,24.5,20.0,30.37,SSW,212,0.0,1.0,83,0.00,,,0.00,weatherlink.com 1.10,2013-01-05 08:59:00,
2013-01-05 04:14:00,25.2,21.0,30.38,SW,221,0.0,1.0,83,0.00,,,0.00,weatherlink.com 1.10,2013-01-05 09:14:00,
2013-01-05 04:29:00,24.2,21.0,30.36,SW,219,0.0,0.0,86,0.00,,,0.00,weatherlink.com 1.10,2013-01-05 09:29:00,
2013-01-05 04:45:00,24.3,20.0,30.37,SW,219,0.0,0.0,85,0.00,,,0.00,weatherlink.com 1.10,2013-01-05 09:45:00,
2013-01-05 05:00:00,23.9,20.0,30.37,SW,219,0.0,0.0,85,0.00,,,0.00,weatherlink.com 1.10,2013-01-05 10:00:00,
2013-01-05 05:15:00,24.3,20.0,30.37,SW,219,0.0,1.0,85,0.00,,,0.00,weatherlink.com 1.10,2013-01-05 10:15:00,
2013-01-05 05:30:00,24.3,20.0,30.38,SW,219,0.0,0.0,84,0.00,,,0.00,weatherlink.com 1.10,2013-01-05 10:30:00,
2013-01-05 05:45:00,23.6,20.0,30.38,SW,219,0.0,0.0,85,0.00,,,0.00,weatherlink.com 1.10,2013-01-05 10:45:00,
2013-01-05 06:00:00,24.0,20.0,30.37,ENE,71,1.0,1.0,85,0.00,,,0.00,weatherlink.com 1.10,2013-01-05 11:00:00,
2013-01-05 06:15:00,24.0,20.0,30.37,East,101,0.0,2.0,86,0.00,,,0.00,weatherlink.com 1.10,2013-01-05 11:15:00,
2013-01-05 06:30:00,23.9,20.0,30.38,SSW,212,0.0,2.0,86,0.00,,,0.00,weatherlink.com 1.10,2013-01-05 11:30:00,
2013-01-05 06:45:00,24.7,21.0,30.38,ESE,111,0.0,1.0,84,0.00,,,0.00,weatherlink.com 1.10,2013-01-05 11:45:00,
2013-01-05 07:00:00,24.5,20.0,30.38,SSW,203,0.0,0.0,84,0.00,,,0.00,weatherlink.com 1.10,2013-01-05 12:00:00,
2013-01-05 07:15:00,23.8,21.0,30.39,SSW,203,0.0,0.0,87,0.00,,,0.00,weatherlink.com 1.10,2013-01-05 12:15:00,
2013-01-05 07:30:00,23.8,21.0,30.39,SSW,203,0.0,1.0,88,0.00,,,0.00,weatherlink.com 1.10,2013-01-05 12:30:00,
2013-01-05 07:45:00,23.5,21.0,30.39,SSW,203,0.0,1.0,88,0.00,,,0.00,weatherlink.com 1.10,2013-01-05 12:45:00,
2013-01-05 08:00:00,24.0,21.0,30.40,SSW,202,0.0,1.0,88,0.00,,,0.00,weatherlink.com 1.10,2013-01-05 13:00:00,
2013-01-05 08:15:00,24.7,21.0,30.39,SSW,203,0.0,0.0,86,0.00,,,0.00,weatherlink.com 1.10,2013-01-05 13:15:00,
2013-01-05 08:30:00,25.7,22.0,30.39,SSE,153,0.0,1.0,85,0.00,,,0.00,weatherlink.com 1.10,2013-01-05 13:30:00,
2013-01-05 08:45:00,26.0,22.0,30.39,SSE,153,0.0,0.0,85,0.00,,,0.00,weatherlink.com 1.10,2013-01-05 13:45:00,
2013-01-05 09:00:00,26.6,22.0,30.39,SSE,152,0.0,0.0,84,0.00,,,0.00,weatherlink.com 1.10,2013-01-05 14:00:00,
2013-01-05 09:15:00,27.6,23.0,30.39,SSE,151,0.0,0.0,83,0.00,,,0.00,weatherlink.com 1.10,2013-01-05 14:15:00,
2013-01-05 09:30:00,28.7,24.0,30.41,SSE,153,0.0,0.0,82,0.00,,,0.00,weatherlink.com 1.10,2013-01-05 14:30:00,
2013-01-05 09:45:00,29.6,25.0,30.39,SE,142,0.0,0.0,82,0.00,,,0.00,weatherlink.com 1.10,2013-01-05 14:45:00,
2013-01-05 10:00:00,30.5,24.0,30.39,SSE,167,0.0,1.0,78,0.00,,,0.00,weatherlink.com 1.10,2013-01-05 15:00:00,
2013-01-05 10:15:00,32.4,24.0,30.40,SSE,167,0.0,0.0,72,0.00,,,0.00,weatherlink.com 1.10,2013-01-05 15:15:00,
2013-01-05 10:30:00,34.4,26.0,30.38,ESE,104,0.0,1.0,70,0.00,,,0.00,weatherlink.com 1.10,2013-01-05 15:30:00,
2013-01-05 10:45:00,35.9,26.0,30.38,SSE,159,0.0,0.0,67,0.00,,,0.00,weatherlink.com 1.10,2013-01-05 15:45:00,
2013-01-05 11:00:00,36.9,26.0,30.39,West,262,1.0,2.0,66,0.00,,,0.00,weatherlink.com 1.10,2013-01-05 16:00:00,
2013-01-05 11:15:00,38.1,27.0,30.39,West,264,1.0,2.0,64,0.00,,,0.00,weatherlink.com 1.10,2013-01-05 16:15:00,
2013-01-05 11:30:00,38.6,26.0,30.39,North,359,1.0,2.0,62,0.00,,,0.00,weatherlink.com 1.10,2013-01-05 16:30:00,
2013-01-05 11:45:00,39.7,25.0,30.39,NW,316,0.0,1.0,57,0.00,,,0.00,weatherlink.com 1.10,2013-01-05 16:45:00,
2013-01-05 12:00:00,41.8,26.0,30.37,SE,129,1.0,1.0,54,0.00,,,0.00,weatherlink.com 1.10,2013-01-05 17:00:00,
2013-01-05 12:15:00,43.9,25.0,30.36,ESE,117,0.0,1.0,47,0.00,,,0.00,weatherlink.com 1.10,2013-01-05 17:15:00,
2013-01-05 12:31:00,45.3,27.0,30.35,East,82,0.0,2.0,49,0.00,,,0.00,weatherlink.com 1.10,2013-01-05 17:31:00,
2013-01-05 12:46:00,45.4,28.0,30.34,ENE,68,0.0,2.0,50,0.00,,,0.00,weatherlink.com 1.10,2013-01-05 17:46:00,
2013-01-05 13:01:00,47.4,25.0,30.33,WSW,243,1.0,1.0,41,0.00,,,0.00,weatherlink.com 1.10,2013-01-05 18:01:00,
2013-01-05 13:16:00,47.8,24.0,30.32,SSW,203,0.0,2.0,39,0.00,,,0.00,weatherlink.com 1.10,2013-01-05 18:16:00,
2013-01-05 13:31:00,48.2,23.0,30.31,WNW,290,0.0,0.0,37,0.00,,,0.00,weatherlink.com 1.10,2013-01-05 18:31:00,
2013-01-05 13:46:00,48.6,27.0,30.30,ESE,112,0.0,1.0,43,0.00,,,0.00,weatherlink.com 1.10,2013-01-05 18:46:00,
2013-01-05 14:01:00,49.0,23.0,30.30,South,184,0.0,2.0,36,0.00,,,0.00,weatherlink.com 1.10,2013-01-05 19:01:00,
2013-01-05 14:16:00,48.8,22.0,30.29,WNW,290,2.0,2.0,35,0.00,,,0.00,weatherlink.com 1.10,2013-01-05 19:16:00,
2013-01-05 14:31:00,49.2,23.0,30.29,West,260,0.0,1.0,36,0.00,,,0.00,weatherlink.com 1.10,2013-01-05 19:31:00,
2013-01-05 14:46:00,49.1,23.0,30.28,WNW,298,0.0,0.0,36,0.00,,,0.00,weatherlink.com 1.10,2013-01-05 19:46:00,
2013-01-05 15:01:00,49.3,24.0,30.27,WSW,248,0.0,0.0,37,0.00,,,0.00,weatherlink.com 1.10,2013-01-05 20:01:00,
2013-01-05 15:16:00,49.6,27.0,30.28,WSW,248,0.0,0.0,42,0.00,,,0.00,weatherlink.com 1.10,2013-01-05 20:16:00,
2013-01-05 15:31:00,49.3,25.0,30.28,WSW,247,0.0,0.0,39,0.00,,,0.00,weatherlink.com 1.10,2013-01-05 20:31:00,
2013-01-05 15:46:00,49.4,24.0,30.28,SSE,159,0.0,0.0,37,0.00,,,0.00,weatherlink.com 1.10,2013-01-05 20:46:00,
2013-01-05 16:01:00,49.1,26.0,30.28,SSE,163,0.0,0.0,40,0.00,,,0.00,weatherlink.com 1.10,2013-01-05 21:01:00,
2013-01-05 16:16:00,48.9,25.0,30.28,SSW,193,0.0,0.0,39,0.00,,,0.00,weatherlink.com 1.10,2013-01-05 21:16:00,
2013-01-05 16:31:00,48.4,27.0,30.28,SSW,193,0.0,0.0,43,0.00,,,0.00,weatherlink.com 1.10,2013-01-05 21:31:00,
2013-01-05 16:46:00,47.9,27.0,30.28,SSW,193,0.0,0.0,44,0.00,,,0.00,weatherlink.com 1.10,2013-01-05 21:46:00,
2013-01-05 17:01:00,47.4,28.0,30.28,SSW,193,0.0,0.0,47,0.00,,,0.00,weatherlink.com 1.10,2013-01-05 22:01:00,
2013-01-05 17:16:00,46.8,29.0,30.27,SSW,193,0.0,0.0,51,0.00,,,0.00,weatherlink.com 1.10,2013-01-05 22:16:00,
2013-01-05 17:31:00,46.1,29.0,30.27,SSW,193,0.0,0.0,52,0.00,,,0.00,weatherlink.com 1.10,2013-01-05 22:31:00,
2013-01-05 17:46:00,45.5,28.0,30.28,SSW,193,0.0,0.0,50,0.00,,,0.00,weatherlink.com 1.10,2013-01-05 22:46:00,
2013-01-05 18:01:00,45.3,27.0,30.28,SSW,193,0.0,0.0,50,0.00,,,0.00,weatherlink.com 1.10,2013-01-05 23:01:00,
2013-01-05 18:16:00,44.9,28.0,30.27,SSW,193,0.0,0.0,51,0.00,,,0.00,weatherlink.com 1.10,2013-01-05 23:16:00,
2013-01-05 18:31:00,44.2,28.0,30.28,SSW,193,0.0,0.0,54,0.00,,,0.00,weatherlink.com 1.10,2013-01-05 23:31:00,
2013-01-05 18:46:00,44.1,27.0,30.28,SSW,193,0.0,0.0,52,0.00,,,0.00,weatherlink.com 1.10,2013-01-05 23:46:00,
2013-01-05 19:01:00,44.8,28.0,30.29,SSW,193,0.0,0.0,52,0.00,,,0.00,weatherlink.com 1.10,2013-01-06 00:01:00,
2013-01-05 19:16:00,44.3,30.0,30.30,SW,229,0.0,0.0,57,0.00,,,0.00,weatherlink.com 1.10,2013-01-06 00:16:00,
2013-01-05 19:31:00,43.5,31.0,30.32,SW,229,0.0,0.0,61,0.00,,,0.00,weatherlink.com 1.10,2013-01-06 00:31:00,
2013-01-05 19:46:00,42.8,30.0,30.33,SW,229,0.0,0.0,61,0.00,,,0.00,weatherlink.com 1.10,2013-01-06 00:46:00,
2013-01-05 20:01:00,41.6,32.0,30.34,WNW,287,0.0,2.0,70,0.00,,,0.00,weatherlink.com 1.10,2013-01-06 01:01:00,
2013-01-05 20:16:00,40.9,31.0,30.32,WNW,289,1.0,1.0,67,0.00,,,0.00,weatherlink.com 1.10,2013-01-06 01:16:00,
2013-01-05 20:31:00,40.5,30.0,30.32,South,181,0.0,0.0,66,0.00,,,0.00,weatherlink.com 1.10,2013-01-06 01:31:00,
2013-01-05 20:46:00,40.0,31.0,30.30,South,181,0.0,1.0,69,0.00,,,0.00,weatherlink.com 1.10,2013-01-06 01:46:00,
2013-01-05 21:01:00,38.9,31.0,30.29,South,181,0.0,1.0,73,0.00,,,0.00,weatherlink.com 1.10,2013-01-06 02:01:00,
2013-01-05 21:16:00,39.1,30.0,30.29,WNW,297,1.0,2.0,70,0.00,,,0.00,weatherlink.com 1.10,2013-01-06 02:16:00,
2013-01-05 21:31:00,39.2,31.0,30.29,WNW,297,0.0,1.0,73,0.00,,,0.00,weatherlink.com 1.10,2013-01-06 02:31:00,
2013-01-05 21:46:00,38.9,33.0,30.29,WNW,297,0.0,0.0,78,0.00,,,0.00,weatherlink.com 1.10,2013-01-06 02:46:00,
2013-01-05 22:01:00,38.4,33.0,30.28,WNW,297,0.0,0.0,82,0.00,,,0.00,weatherlink.com 1.10,2013-01-06 03:01:00,
2013-01-05 22:16:00,38.5,32.0,30.29,WNW,297,0.0,1.0,76,0.00,,,0.00,weatherlink.com 1.10,2013-01-06 03:16:00,
2013-01-05 22:31:00,38.2,33.0,30.29,WNW,297,0.0,0.0,82,0.00,,,0.00,weatherlink.com 1.10,2013-01-06 03:31:00,
2013-01-05 22:46:00,37.6,34.0,30.28,WNW,297,0.0,0.0,88,0.00,,,0.00,weatherlink.com 1.10,2013-01-06 03:46:00,
2013-01-05 23:01:00,37.5,35.0,30.28,WNW,297,0.0,0.0,90,0.01,,,0.01,weatherlink.com 1.10,2013-01-06 04:01:00,
2013-01-05 23:16:00,37.2,35.0,30.27,WNW,297,0.0,0.0,91,0.01,,,0.01,weatherlink.com 1.10,2013-01-06 04:16:00,
2013-01-05 23:31:00,37.1,35.0,30.27,WNW,297,0.0,0.0,93,0.01,,,0.01,weatherlink.com 1.10,2013-01-06 04:31:00,
2013-01-05 23:46:00,36.9,35.0,30.27,WNW,297,0.0,0.0,93,0.01,,,0.01,weatherlink.com 1.10,2013-01-06 04:46:00,